Temperature
9 7 7 8 8 10 10 10 10 10 10 10 9 9 10 10 11 10 11 12 12 12 12 12 12 12 11 11 11 10 10 10 10 9 9 9 9 9 9 9 8 8 8 8
7 7 8 9 9 9 9 9 9 9 10 10 9 8 9 9 9 11 11 11 12 12 12 12 11 11 11 11 11 10 10 10 9 9 9 9 8 8 8 8 8 8 8 8
7 8 9 9 9 9 9 9 9 9 9 9 9 8 9 9 10 11 11 12 12 12 12 11 11 11 11 10 10 10 10 9 9 9 8 8 8 8 8 8 8 8 8 8
7 8 9 9 9 9 8 9 9 9 8 7 8 7 8 8 9 9 9 10 11 11 11 11 11 11 10 10 10 10 9 9 9 8 8 8 8 7 7 7 7 7 7 7
7 8 9 9 9 9 8 9 9 8 7 6 6 6 7 8 8 9 8 9 11 11 11 11 11 11 10 10 10 9 9 9 9 8 8 7 7 7 7 7 7 7 7 7
7 8 9 9 9 9 8 7 6 4 4 5 6 6 7 6 8 9 8 9 10 11 11 10 10 10 10 10 9 9 9 9 8 8 8 7 7 7 6 6 6 6 6 6
7 8 8 9 8 8 7 6 5 6 4 5 6 6 7 8 8 8 8 9 10 10 10 10 10 10 10 9 9 9 8 8 8 8 7 7 7 6 6 6 6 6 6 6
6 6 7 8 8 7 6 6 6 6 6 5 6 6 7 8 8 9 10 10 10 10 10 10 10 10 9 9 9 9 8 8 8 7 7 7 6 6 6 6 5 5 5 5
5 6 7 7 8 7 6 5 6 5 4 5 5 5 6 8 8 8 8 9 9 10 10 10 10 9 9 9 9 8 8 7 7 7 6 6 6 6 5 5 5 5 5 5
6 5 6 7 7 7 6 5 4 4 5 5 6 6 6 8 8 7 6 7 9 9 9 9 9 9 9 8 8 8 7 7 7 6 6 6 5 5 5 5 5 5 5 5
6 5 5 6 6 5 5 5 5 3 3 4 5 6 7 7 7 7 6 8 9 9 9 9 9 9 9 8 8 7 7 7 6 6 6 5 5 5 5 5 4 4 4 4
5 4 4 4 5 6 5 5 4 4 3 2 3 5 8 6 7 7 7 8 9 9 9 9 9 8 8 8 7 7 6 6 6 6 5 5 5 5 4 4 4 4 4 4
5 3 4 4 4 5 4 4 4 3 3 2 3 5 7 6 6 7 8 8 8 8 8 8 8 8 7 7 6 6 6 6 5 5 5 5 4 4 4 4 4 3 3 3
5 3 4 5 4 3 3 3 3 3 3 3 3 5 7 6 6 6 7 7 8 8 8 7 7 7 7 6 6 6 5 5 5 4 4 4 4 4 3 3 3 3 3 3
4 3 3 4 4 3 4 4 3 3 3 4 4 4 6 6 5 6 7 7 7 7 7 7 6 6 6 6 5 5 5 4 4 4 4 3 3 3 3 3 3 3 3 3
2 2 2 3 4 3 3 3 4 4 4 4 4 4 5 5 6 5 6 6 6 6 6 6 5 5 5 5 4 4 4 4 3 3 3 3 3 3 2 2 2 2 2 2
1 1 2 2 2 3 3 3 4 3 3 4 4 5 4 4 4 4 5 5 5 5 5 5 4 4 4 4 3 3 3 3 3 3 2 2 2 2 2 2 2 2 2 2
1 1 1 1 1 2 4 4 4 4 4 4 4 4 4 4 4 5 5 5 5 4 4 4 4 3 3 3 3 3 2 2 2 2 2 2 1 1 1 1 1 1 1 1
1 1 0 1 1 1 3 3 3 3 3 3 3 3 3 4 3 3 4 4 4 4 3 3 3 3 2 2 2 2 2 2 1 1 1 1 1 1 0 0 0 0 0 1
1 0 0 0 1 2 3 3 3 3 2 2 2 2 2 2 1 2 3 3 3 3 3 2 2 2 2 1 1 1 1 1 1 1 0 0 0 -0 -0 -0 -0 -0 -0 0
0 0 0 0 0 1 2 3 3 3 2 2 2 2 2 1 1 2 2 2 2 2 2 1 1 1 1 0 0 0 0 0 0 -0 -0 -0 -0 -1 -1 -1 -1 -1 -1 -0
-0 -1 -1 -0 -0 1 2 2 2 1 2 2 2 2 2 1 1 1 1 1 1 1 1 1 0 0 -0 -0 -1 -0 -0 -1 -1 -1 -1 -1 -1 -1 -1 -1 -1 -1 -1 -1
-1 -0 -1 -0 1 1 1 2 2 2 2 1 1 1 1 1 0 0 0 0 0 0 -0 -0 -0 -1 -0 -1 -1 -1 -1 -1 -1 -1 -1 -1 -1 -2 -2 -2 -2 -1 -1 -1
-1 -1 -1 -1 -1 0 1 1 1 1 1 1 1 1 0 -0 -0 -0 -0 -1 -1 -1 -1 -1 -1 -1 -1 -1 -2 -2 -2 -2 -2 -2 -2 -2 -2 -2 -2 -2 -2 -2 -2 -2
-2 -2 -2 -1 -1 -1 0 0 1 0 0 0 0 -0 -0 -1 -1 -1 -1 -1 -1 -2 -2 -2 -2 -2 -2 -2 -2 -2 -2 -3 -3 -3 -3 -2 -2 -2 -2 -2 -2 -2 -2 -2
-3 -2 -2 -2 -1 -1 -1 0 0 -0 -0 -1 -1 -1 -1 -2 -2 -2 -2 -2 -2 -2 -2 -2 -2 -3 -3 -3 -3 -3 -3 -3 -3 -3 -3 -3 -3 -3 -3 -3 -3 -2 -2 -2
Wind_Speed
3 3 7 11 10 5 5 4 4 5 3 4 9 13 14 10 8 10 9 9 8 9 7 6 7 6 6 5 5 5 4 3 2 1 1 1 3 3 3 4 5 6 5 5
3 7 8 5 6 4 3 3 4 4 2 3 7 12 12 9 9 10 10 10 9 6 4 5 6 6 6 6 6 5 5 4 3 3 3 3 3 4 4 4 5 6 6 6
9 6 6 7 5 6 5 6 5 4 4 4 5 9 7 5 4 5 7 8 8 9 9 7 7 7 6 6 6 6 6 5 4 4 2 1 1 2 3 4 4 5 7 7
6 6 4 5 6 7 6 5 5 3 1 4 1 5 7 5 4 3 4 5 7 7 7 7 7 7 7 6 6 6 6 5 4 4 3 3 3 4 5 5 5 6 7 7
6 5 6 7 7 7 5 2 3 2 3 2 2 4 9 4 5 6 6 6 7 7 8 8 8 8 6 5 5 5 5 5 5 5 5 5 5 6 5 5 6 6 6 7
4 3 4 6 3 6 6 6 6 5 4 3 6 6 8 5 7 5 5 6 7 6 6 6 6 5 4 4 4 4 4 5 5 5 5 6 7 7 7 7 7 6 6 6
3 4 3 3 5 3 5 6 3 3 2 7 4 5 9 8 7 7 8 8 7 7 6 5 5 5 5 5 5 5 5 6 6 6 6 7 8 8 9 9 8 7 6 6
7 6 7 6 6 7 6 8 7 6 6 5 3 7 8 7 5 4 5 6 6 6 6 6 7 6 6 6 6 6 6 6 6 6 7 7 8 6 7 8 8 8 8 8
8 6 1 4 4 9 7 5 5 5 2 3 6 7 8 3 1 1 4 5 5 6 5 5 6 5 6 6 6 7 7 7 7 7 7 7 8 7 8 9 8 8 8 8
7 4 3 2 4 2 6 8 5 5 5 5 6 6 5 5 5 3 4 5 5 5 5 5 5 6 5 6 5 5 5 6 6 6 7 7 7 8 8 8 9 9 9 9
4 5 1 2 8 10 6 5 5 5 5 6 5 7 6 8 7 6 6 6 6 6 6 6 5 5 5 4 3 4 4 5 5 6 6 6 7 7 8 8 9 9 8 8
4 4 3 6 4 4 6 8 8 6 6 5 4 8 5 5 6 5 5 4 5 5 5 5 5 4 4 4 4 4 4 5 5 5 5 6 7 7 7 8 8 8 8 8
5 5 2 2 3 1 4 5 6 5 5 6 6 8 4 1 1 2 3 4 4 4 4 4 4 4 4 4 4 4 4 4 5 5 5 6 7 7 8 8 8 7 8 9
5 4 7 10 6 6 5 6 7 6 6 7 10 10 8 5 5 5 5 5 5 5 4 4 4 4 4 4 4 4 4 5 5 5 5 6 7 7 8 8 8 8 8 9
3 5 6 6 4 4 6 8 10 12 11 10 10 11 12 9 7 6 5 5 4 4 4 3 3 4 4 4 4 4 5 5 5 5 6 7 7 7 7 8 8 8 8 9
2 3 3 4 5 6 7 9 12 13 12 12 12 13 10 7 4 5 6 5 5 5 5 4 4 4 4 4 4 5 5 6 5 6 7 7 7 7 7 8 8 8 8 9
2 3 2 3 3 2 9 11 13 8 8 9 14 13 6 6 7 8 8 6 6 5 4 4 4 4 4 5 5 5 5 5 5 6 7 7 7 7 8 9 9 9 8 8
4 4 3 2 1 8 8 5 8 11 10 10 8 7 7 8 8 6 5 5 4 4 3 4 4 4 5 5 5 5 5 5 6 6 7 7 7 8 8 8 9 9 8 9
6 5 3 3 5 8 8 4 5 7 8 7 9 8 7 5 3 5 3 3 4 4 4 4 4 4 4 4 5 5 5 6 6 7 7 7 7 8 8 9 9 9 9 9
5 5 4 4 4 7 6 3 2 3 5 3 4 6 4 1 3 6 4 3 3 3 3 3 3 3 4 5 4 5 6 6 7 8 8 7 7 7 9 9 9 8 8 9
4 5 7 7 6 8 6 3 2 3 5 3 2 2 2 3 6 5 4 4 3 3 3 3 3 3 4 5 5 6 7 7 8 8 8 8 7 8 9 8 8 8 8 8
7 6 6 5 6 8 2 2 4 4 1 1 2 2 3 3 4 4 4 4 3 3 3 3 3 4 4 4 5 6 7 8 8 7 7 8 8 8 8 8 8 8 8 8
6 7 5 7 7 3 1 2 2 2 1 2 2 3 3 3 4 4 5 5 4 4 4 4 4 5 5 5 4 7 8 8 8 8 8 8 8 7 7 7 8 7 6 6
4 2 3 4 5 4 3 2 2 1 2 2 2 3 3 4 5 5 5 5 5 5 5 4 5 6 7 6 6 7 8 7 7 8 8 8 8 8 7 6 6 6 6 7
4 3 3 5 5 4 3 2 2 2 2 2 3 3 3 4 5 5 5 5 5 6 5 5 5 6 7 7 7 7 7 7 7 8 8 8 7 7 7 7 6 7 6 7
4 5 5 6 5 4 5 4 2 2 3 3 2 3 3 3 5 5 5 5 5 6 6 5 6 6 7 7 8 8 7 6 7 7 7 6 6 6 6 7 8 10 10 14
Wind_Direction
155 127 199 203 199 192 168 182 233 248 229 211 239 259 269 264 244 238 234 225 219 216 218 196 178 166 155 158 161 170 174 188 174 186 229 260 269 271 272 262 257 260 267 270
118 229 221 192 195 215 217 230 251 285 290 231 264 272 271 259 235 225 219 214 211 204 191 180 171 167 169 174 177 181 188 196 199 207 220 226 240 253 254 260 260 256 257 260
189 222 198 183 188 197 222 210 217 244 331 341 323 302 286 281 241 225 209 200 197 190 187 183 178 181 180 186 191 194 201 206 215 216 224 277 293 296 280 272 266 258 257 256
223 241 201 183 201 183 226 213 193 186 46 291 351 294 285 284 294 255 211 192 196 191 183 180 180 185 191 201 201 199 206 215 223 214 212 230 248 260 258 257 258 265 256 254
222 207 193 201 202 172 194 144 132 134 142 313 265 228 281 291 260 252 226 205 200 192 182 180 184 190 198 197 198 206 212 223 228 223 221 230 247 252 261 265 266 265 259 251
229 238 201 193 170 159 130 72 58 53 75 278 223 196 274 241 225 232 223 211 201 190 185 186 189 186 198 205 208 211 219 237 237 234 234 232 244 254 265 269 265 266 263 259
237 254 229 152 121 119 116 103 51 351 335 250 224 210 250 246 235 213 206 207 200 186 182 187 188 196 208 214 222 222 222 240 244 239 242 243 244 247 249 255 255 262 265 261
187 239 212 188 171 168 175 153 166 198 224 269 252 233 252 265 262 230 197 184 178 182 188 194 200 204 213 221 225 225 232 246 249 246 251 252 251 250 250 249 250 252 255 255
185 226 233 185 155 141 148 186 164 135 153 264 263 275 297 287 285 171 167 167 183 194 203 209 213 217 222 226 228 225 232 248 253 254 257 261 259 255 257 256 251 253 255 258
164 198 230 159 102 96 149 147 120 143 175 241 273 262 239 232 226 212 194 195 205 208 215 222 224 227 230 230 235 234 233 243 253 255 256 263 262 260 262 258 256 257 257 256
158 161 201 160 189 181 151 160 156 150 168 179 247 262 224 209 208 205 208 203 202 209 218 225 233 237 240 245 245 249 256 258 265 265 265 270 272 270 271 262 258 258 259 259
164 146 200 237 259 203 180 177 156 168 216 198 208 264 263 224 216 198 204 213 222 223 227 233 236 242 247 248 252 255 262 263 263 267 273 276 280 282 281 272 267 264 263 263
153 146 135 326 314 219 209 197 179 150 148 179 199 257 297 335 249 212 217 240 246 244 253 256 252 248 247 249 252 259 267 272 275 278 281 284 287 286 283 279 276 272 271 272
146 163 191 202 210 183 209 215 189 168 197 215 223 247 275 282 276 274 267 258 254 255 250 246 250 255 257 257 261 268 278 283 287 287 288 287 285 282 280 280 276 274 274 275
143 196 215 235 228 193 213 218 209 212 213 217 234 238 254 256 253 254 257 261 262 267 267 257 259 266 274 282 285 287 290 293 295 296 292 285 283 283 284 286 283 280 275 277
128 189 196 246 231 223 244 236 222 226 227 235 252 260 261 262 268 274 271 266 256 262 263 259 264 269 276 279 286 292 290 291 295 295 291 289 289 289 289 289 289 286 283 280
167 147 164 248 271 274 250 226 216 216 214 211 237 248 257 270 266 262 258 250 245 259 265 269 272 267 268 274 276 280 282 291 297 294 295 296 296 296 295 297 298 290 285 282
167 163 171 202 139 235 246 219 210 223 233 221 233 246 243 246 256 264 248 229 246 256 265 269 267 274 279 280 285 287 292 297 297 297 297 297 297 298 300 300 297 294 290 286
185 168 176 186 231 268 283 247 191 207 243 227 235 254 263 259 288 287 264 222 239 253 259 257 262 273 285 294 301 306 303 299 296 295 296 295 294 295 297 297 296 296 295 290
168 167 183 192 216 239 252 257 212 143 257 275 241 255 264 268 272 270 276 282 272 267 267 281 297 307 309 306 312 310 301 298 293 292 292 290 289 289 290 289 291 294 293 291
176 192 208 213 231 257 261 267 112 180 243 290 279 267 253 228 238 261 290 293 276 279 287 299 312 308 298 302 310 303 299 292 291 294 295 294 293 290 288 289 292 295 296 297
182 187 204 193 217 249 264 126 173 222 250 289 293 276 268 264 267 275 283 283 289 300 300 304 304 297 296 299 302 297 294 293 298 300 300 298 296 296 300 297 296 297 296 298
201 193 191 199 220 249 221 206 239 200 225 251 259 275 269 279 279 280 282 284 281 281 287 293 293 297 300 297 292 291 293 298 303 305 303 302 302 298 297 296 298 302 299 295
257 205 186 239 261 273 275 277 283 241 237 250 257 275 275 273 276 281 286 289 290 287 289 294 298 298 301 302 296 288 294 300 303 305 306 308 309 306 304 300 298 299 300 298
226 198 210 247 269 288 282 261 259 282 282 282 290 284 273 271 277 278 284 289 290 295 293 290 289 290 294 300 300 300 300 304 306 306 307 310 308 306 306 303 296 293 286 288
213 199 206 244 249 238 262 264 256 268 278 278 296 309 304 285 280 286 286 285 286 290 293 294 293 291 294 298 299 303 302 303 305 308 309 309 308 308 308 308 310 301 296 301
Height
1478 1483 1482 1479 1479 1479 1480 1482 1482 1480 1476 1478 1478 1473 1467 1464 1464 1464 1464 1465 1466 1467 1469 1471 1472 1474 1475 1477 1477 1478 1478 1478 1478 1478 1477 1476 1475 1475 1474 1473 1472 1471 1470 1470
1481 1480 1474 1475 1477 1478 1479 1481 1482 1479 1476 1477 1476 1471 1463 1459 1458 1457 1458 1459 1461 1463 1465 1466 1468 1470 1471 1473 1474 1475 1475 1475 1475 1474 1473 1473 1472 1470 1470 1469 1468 1467 1466 1465
1475 1472 1469 1472 1475 1477 1479 1481 1480 1479 1478 1476 1477 1472 1462 1455 1453 1452 1453 1454 1456 1458 1460 1462 1464 1466 1468 1469 1470 1471 1471 1471 1471 1471 1470 1469 1468 1466 1465 1464 1463 1463 1462 1461
1472 1468 1468 1470 1472 1473 1478 1474 1475 1478 1483 1486 1482 1484 1465 1457 1453 1451 1450 1451 1453 1455 1457 1459 1461 1463 1464 1466 1467 1468 1468 1468 1467 1467 1466 1464 1463 1461 1460 1460 1458 1458 1457 1456
1468 1465 1466 1467 1467 1469 1472 1472 1475 1478 1484 1489 1485 1486 1469 1459 1455 1450 1449 1449 1450 1452 1454 1456 1458 1460 1462 1463 1464 1464 1464 1464 1464 1463 1462 1461 1459 1457 1456 1455 1453 1453 1452 1451
1465 1463 1462 1463 1464 1466 1470 1475 1480 1487 1491 1493 1483 1486 1470 1460 1451 1447 1446 1446 1448 1450 1452 1454 1456 1458 1459 1460 1461 1461 1461 1460 1460 1459 1457 1456 1455 1453 1451 1450 1448 1447 1446 1445
1465 1462 1460 1460 1464 1467 1470 1481 1492 1493 1499 1490 1478 1478 1465 1449 1444 1442 1443 1444 1445 1448 1450 1452 1453 1454 1455 1456 1457 1457 1456 1456 1455 1454 1453 1451 1450 1448 1446 1444 1443 1441 1440 1439
1467 1465 1459 1458 1459 1465 1469 1473 1485 1488 1490 1483 1476 1474 1456 1443 1440 1439 1440 1441 1444 1446 1448 1449 1451 1451 1452 1453 1453 1452 1452 1451 1450 1449 1447 1446 1444 1443 1441 1439 1437 1435 1434 1432
1463 1461 1455 1454 1455 1459 1468 1473 1472 1484 1488 1487 1477 1466 1452 1441 1439 1439 1439 1441 1442 1444 1446 1447 1448 1449 1449 1449 1448 1448 1447 1446 1445 1443 1442 1440 1439 1437 1434 1432 1431 1429 1428 1426
1455 1460 1455 1455 1456 1458 1461 1466 1477 1484 1487 1483 1472 1466 1455 1443 1440 1439 1440 1440 1440 1442 1444 1445 1445 1445 1445 1445 1444 1444 1443 1441 1440 1438 1436 1434 1432 1430 1428 1426 1424 1422 1421 1420
1451 1459 1459 1457 1456 1458 1462 1465 1468 1478 1482 1482 1477 1460 1441 1438 1437 1438 1438 1438 1439 1440 1441 1442 1442 1442 1442 1441 1440 1439 1438 1437 1435 1433 1431 1428 1426 1424 1422 1419 1417 1415 1414 1412
1449 1457 1462 1458 1454 1453 1454 1457 1464 1473 1478 1480 1477 1458 1434 1434 1433 1434 1435 1436 1437 1438 1439 1439 1439 1439 1438 1437 1436 1435 1433 1432 1430 1427 1425 1423 1420 1418 1415 1413 1411 1409 1407 1405
1446 1455 1461 1458 1460 1456 1455 1455 1457 1462 1469 1477 1474 1454 1433 1432 1432 1433 1434 1435 1436 1436 1437 1436 1436 1435 1434 1433 1432 1431 1429 1427 1425 1423 1420 1417 1415 1412 1410 1407 1405 1403 1401 1398
1442 1450 1451 1449 1448 1452 1454 1453 1454 1458 1462 1465 1458 1445 1436 1434 1433 1433 1433 1433 1433 1433 1433 1433 1432 1432 1431 1430 1428 1426 1425 1423 1420 1418 1415 1412 1409 1407 1404 1401 1399 1397 1394 1392
1440 1445 1446 1444 1443 1446 1446 1446 1449 1450 1449 1451 1444 1442 1434 1433 1432 1431 1431 1430 1430 1430 1430 1429 1428 1428 1427 1425 1424 1422 1420 1418 1416 1413 1410 1407 1404 1401 1399 1396 1393 1391 1388 1385
1441 1444 1444 1443 1441 1443 1443 1441 1441 1441 1441 1441 1439 1436 1430 1429 1429 1429 1428 1427 1427 1426 1426 1425 1425 1424 1423 1421 1419 1417 1415 1413 1411 1408 1405 1402 1399 1396 1393 1390 1387 1384 1381 1379
1442 1445 1446 1445 1443 1442 1441 1433 1433 1435 1433 1434 1433 1429 1428 1427 1426 1425 1424 1423 1423 1423 1422 1422 1421 1420 1419 1417 1415 1413 1411 1409 1406 1403 1400 1397 1394 1390 1387 1384 1381 1378 1375 1372
1441 1443 1446 1448 1448 1445 1428 1422 1423 1425 1424 1426 1425 1424 1423 1423 1422 1421 1420 1420 1420 1419 1419 1418 1417 1416 1414 1413 1411 1408 1406 1404 1401 1398 1395 1392 1389 1385 1382 1379 1375 1372 1369 1365
1435 1441 1445 1447 1446 1438 1426 1421 1421 1423 1422 1421 1421 1420 1420 1419 1419 1418 1418 1418 1417 1417 1416 1415 1414 1412 1410 1408 1406 1404 1401 1399 1396 1393 1390 1387 1384 1381 1377 1373 1370 1366 1363 1359
1434 1437 1442 1443 1442 1436 1422 1417 1416 1420 1423 1419 1417 1417 1418 1418 1421 1417 1415 1414 1414 1413 1412 1411 1409 1408 1406 1404 1402 1399 1396 1394 1391 1388 1385 1383 1380 1376 1372 1368 1365 1361 1357 1353
1435 1436 1437 1438 1438 1430 1419 1416 1416 1425 1422 1417 1416 1415 1416 1416 1416 1414 1412 1411 1410 1409 1408 1407 1405 1403 1401 1400 1397 1394 1392 1389 1387 1384 1380 1377 1374 1371 1367 1363 1359 1355 1352 1348
1430 1433 1435 1435 1436 1428 1416 1416 1419 1418 1415 1415 1414 1414 1413 1413 1411 1410 1409 1408 1406 1405 1404 1402 1400 1399 1397 1395 1393 1390 1387 1385 1382 1379 1375 1372 1369 1365 1361 1357 1353 1350 1347 1343
1424 1423 1424 1425 1422 1416 1414 1414 1414 1414 1414 1413 1413 1412 1411 1410 1409 1407 1406 1404 1403 1402 1400 1398 1396 1394 1392 1390 1388 1385 1383 1380 1377 1373 1370 1366 1363 1359 1356 1352 1348 1345 1342 1339
1420 1417 1419 1420 1416 1413 1412 1412 1412 1412 1412 1411 1411 1410 1409 1407 1406 1404 1402 1401 1399 1397 1396 1394 1392 1389 1387 1385 1383 1381 1378 1375 1372 1368 1365 1362 1358 1354 1351 1348 1344 1341 1338 1335
1417 1416 1416 1416 1413 1411 1410 1410 1410 1410 1409 1408 1407 1406 1405 1404 1402 1401 1398 1397 1395 1393 1392 1390 1387 1385 1383 1381 1378 1376 1374 1371 1367 1364 1360 1357 1353 1350 1346 1343 1340 1337 1334 1332
1412 1413 1415 1412 1410 1410 1408 1407 1407 1407 1406 1405 1404 1402 1401 1400 1398 1397 1394 1392 1391 1389 1387 1385 1382 1380 1378 1376 1373 1371 1369 1366 1362 1359 1355 1352 1349 1346 1343 1339 1336 1333 1331 1328